www.pogodaiklimat.ru

Погода и климат >> Архив погоды >> Россия >> Забайкальский край >> Улеты


ПОГОДА в Улетах

  • Прогноз погоды в Улетах
  • Монитор погоды в Улетах

АРХИВ ПОГОДЫ в Улетах

Время (UTC), дата Ветер
(напр.,м/с)
 
Видим.   Явления Облачность Т
(С)
Тd
(С)
f
(%)
Тe
(С)
Тes
(С)
Комфортность P
(гПа)
Po
(гПа)
Тmin
(С)
Tmax
(С)
R
(мм)
R24
(мм)
S
(см)
09 10.09 штиль 0 50 км 6/0
[Ci ing]
+20.2 +1.6 29 +20 +22 1013.7 930.5
12 10.09 СЗ 1 50 км 9/0
[Ac trans Ci ing]
+12.5 +7.9 74 +13 +13 1016.2 930.8 +20.6
15 10.09 штиль 0 50 км 10/0
[Ac As]
+11.2 +7.9 80 +11 +11 1015.5 929.8
18 10.09 Ю 1 50 км 10/0
[Ac As]
+10.8 +7.7 81 +11 +11 1014.5 928.7
21 10.09 ЮЗ 1 50 км 3/0
[Ci ing]
+7.4 +5.7 89 +6 +6 1015.2 928.4
00 11.09 штиль 0 50 км 3/0
[Ci fib]
+11.6 +7.7 77 +11 +13 1013.7 928.2 +6.2
03 11.09 В 1 50 км 3/0
[Ci fib]
+18.6 +8.4 51 +20 +29 1010.2 927.0
06 11.09 ЮЗ 3 50 км 1/0
[Ci fib]
+26.3 +7.1 29 +26 +33 жарко 1004.9 924.1
09 11.09 Ю 2 50 км 3/3 1000 м
[Cu med, cong Ci ing]
+27.4 +7.4 28 +27 +28 жарко 1001.8 921.5
12 11.09 Ю 2 50 км 4/3 1000 м
[Cb cap Ac lent Ci ing]
+17.5 +10.2 62 +18 +18 1003.7 920.8 +28.4
15 11.09 Ю 3 50 км 3/0
[Ci ing]
+18.9 +5.1 40 +19 +19 1002.9 920.3
18 11.09 З 1 50 км ясно +9.5 +6.7 83 +9 +9 1003.7 918.5
21 11.09 Ю 1 50 км 6/4 1000 м
[Cb cap Ci ing]
+9.9 +7.1 83 +9 +9 1002.3 917.3
00 12.09 З 5-10
{10}
50 км 9/3 600 м
[Cb cap Ac As Ci ing]
+14.7 +7.2 61 +13 +14 1003.6 919.8 +8.2
03 12.09 ЮЗ 2
{10}
20 км слаб. ливневой дождь 10/6 600 м
[Cb cap Ac As]
+11.1 +8.9 86 +10 +11 1007.4 922.4
06 12.09 З 4 50 км {ливн. осадки} 10/8 600 м
[Cb cap Ac As]
+11.5 +6.3 70 +9 +10 1006.5 921.6
09 12.09 З 4 50 км 10/4 600 м
[Cb cap Ac trans Ci ing]
+12.5 +5.7 63 +11 +11 1005.4 920.8
12 12.09 ЮЗ 4 50 км 5/3 1000 м
[Sc Ac trans]
+10.8 +5.2 68 +9 +9 1007.8 922.6 +14.7 2
18 12.09 З 6 50 км ясно +7.4 +3.1 74 +3 +3 1011.2 924.6
21 12.09 ЮЗ 4 50 км ясно +7.4 +3.2 75 +4 +4 1012.2 925.5
00 13.09 ЮЗ 5 50 км 5/1 1000 м
[Sc Ac trans Ci ing]
+8.3 +3.8 73 +5 +5 1013.4 926.9 +6.4
03 13.09 З 4 50 км 10/10 600 м
[Cb cap]
+9.2 +3.8 69 +6 +6 1014.0 927.8
06 13.09 СЗ 4 50 км 8/8 600 м
[Cb cap]
+10.8 +2.1 55 +9 +10 1012.9 927.2
09 13.09 З 5
{10}
50 км 4/4 1000 м
[Cb cap]
+12.6 +0.6 44 +11 +11 1011.7 926.6
12 13.09 ЮЗ 4 50 км 1/1 1000 м
[Sc]
+9.1 -0.1 53 +7 +7 1013.4 927.1 +12.8
15 13.09 В 1 50 км 3/3 1000 м
[Sc]
+3.6 +1.1 84 +2 +2 1015.4 927.4
18 13.09 СВ 1 50 км 4/3 1000 м
[Cb cap Ci ing]
+2.0 +0.6 90 0 0 1015.4 926.8
21 13.09 СВ 1 50 км 9/4 600 м
[Cb cap Ac As Ci ing]
+0.9 +0.2 95 -1 -1 1014.2 925.4
00 14.09 СВ 1 50 км 8/5 600 м
[Cb cap Ac trans Ci ing]
+3.7 +2.3 91 +2 +3 1012.0 924.3 +0.3
03 14.09 СЗ 1 50 км 9/6 1000 м
[Cb cap Ac trans]
+10.4 +3.5 62 +10 +12 1009.0 923.5
06 14.09 Ю 3 50 км {ливн. осадки} 8/6 600 м
[Cb cap Ac lent Ci ing]
+12.4 +3.6 55 +11 +13 1006.7 921.9
09 14.09 ЮЗ 6
{11}
50 км 9/8 600 м
[Cb cap Ac trans Ci ing]
+11.6 +2.3 53 +9 +9 1006.5 921.5
12 14.09 ЮЗ 4
{11}
50 км {ливн. осадки} 8/3 1000 м
[Cb cap Ac trans Ci ing]
+8.7 +2.9 67 +6 +6 1009.5 923.5 +14.8 0.1
15 14.09 З 4 50 км 4/3 1000 м
[Cb cap Ac trans Ci ing]
+5.7 -1.1 62 +2 +2 1012.0 924.8
18 14.09 СЗ 6-13
{13}
50 км 8/8 600 м
[Cb cap]
+4.5 -4.4 52 -0 -0 1015.7 927.8
21 14.09 З 4
{14}
50 км 3/0
[Ac lent Ci ing]
-0.7 -10.0 49 -6 -6 1019.9 930.0
00 15.09 З 7-10
{10}
50 км 8/0
[Ci ing]
+1.5 -9.4 44 -4 -4 1020.5 931.2 -1.2
03 15.09 З 6-11
{12}
50 км ясно +5.6 -10.9 29 +2 +5 1018.7 930.9
06 15.09 З 6-10
{13}
50 км 3/0
[Ac lent Ci fib]
+9.4 -15.2 16 +7 +9 1015.4 928.8
09 15.09 З 6-11
{13}
50 км 8/0
[Ac lent Ci fib]
+9.4 -8.6 27 +7 +7 1014.6 928.2
12 15.09 ЮЗ 2
{12}
50 км 10/0
[Ac lent Ci ing]
+7.8 -3.7 44 +6 +6 1015.3 928.4 +10.5
15 15.09 ЮЗ 4 50 км 4/0
[Ac lent Ci ing]
+7.0 -1.8 53 +4 +4 1015.0 928.0
18 15.09 ЮЗ 4 50 км 10/0
[Ac lent Ci ing]
+6.8 -0.6 59 +4 +4 1014.6 927.5
21 15.09 ЮЗ 2 50 км 1/0
[Ac lent]
+6.0 -0.1 65 +4 +4 1013.7 926.4
00 16.09 ЮЗ 3 50 км 8/3 1000 м
[Sc Ac trans Ci ing]
+8.4 +0.4 57 +6 +7 1012.3 925.9 +1.4
03 16.09 ЮЗ 4 50 км 8/4 1000 м
[Cb cap Ci ing]
+12.2 +1.3 47 +11 +13 1010.4 925.2
06 16.09 З 5-10
{12}
50 км 8/6 600 м
[Cb cap Ci ing]
+15.6 +0.9 37 +15 +16 1006.9 923.1
09 16.09 З 6-10
{14}
50 км {ливн. осадки} 8/4 600 м
[Cb cap Ac As Ci ing]
+12.0 +3.8 57 +10 +10 1008.8 923.8
12 16.09 СЗ 2
{14}
50 км в посл. час ливневой дождь 10/8 600 м
[Cb cap Ac trans]
+6.0 +2.6 79 +4 +4 1013.2 926.1 +15.7 2
15 16.09 З 4 н/о н/о +4.1 -2.5 62 0 0 1017.2 929.1
18 16.09 З 3 н/о н/о +2.0 -3.2 68 -2 -2 1020.4 931.4
21 16.09 З 4 50 км ясно +0.4 -3.5 75 -5 -5 1023.2 933.4
00 17.09 З 6 50 км ясно +3.0 -3.7 61 -2 -2 1025.3 936.1 -0.2
03 17.09 СЗ 3
{10}
50 км 8/8 1000 м
[Cb cap]
+6.3 -5.4 43 +4 +5 1025.3 937.1

 

Местоположение метеостанции Улеты (Забайкальский край, Россия): широта 51.35 долгота 112.40 высота над уровнем моря 743 м.

В архиве по умолчанию представлена погода в Улетах за последнюю неделю. Архивные данные за месяц целиком и за предыдущие месяцы, начиная с января 2011 года, Вы можете получить, выбрав интересующий диапазон дат из раскрывающегося списка и нажав кнопку "Ввод!".


*Определитесь, кто Вы:
робот инопланетянин человек

Внимание! Время в таблицах - всемирное. Для получения местного времени необходимо прибавить поправку, которая равна 9 ч.

Смотрите также архив погоды в соседних городах и на ближайших метеорологических станциях:

Погода в Могзоне (Забайкальский край, Россия) (51 км)
Погода в Беклемишево (Забайкальский край, Россия) (88 км)
Погода в Курорт-Дарасуне (Забайкальский край, Россия) (92 км)
Погода в Усть-Зазе (Бурятия, Россия) (106 км)
Погода в Чите (Забайкальский край, Россия) (106 км)
Погода в Дульдурге (Забайкальский край, Россия) (107 км)
Погода в Акше (Забайкальский край, Россия) (133 км)
Погода в Карымской (Забайкальский край, Россия) (135 км)
Погода в Хилке (Забайкальский край, Россия) (139 км)
Погода в Сосново-Озерском (Бурятия, Россия) (145 км)

Пояснения к столбцам:

Ветер - указаны скорость ветра в м/с - средняя за 10 мин, порывы в срок и между сроками (в фигурных скобках) и направление, откуда дует ветер: С - северный, СВ - северо-восточный, В - восточный, ЮВ - юго-восточный, Ю - южный, ЮЗ - юго-западный, З - западный, СЗ - северо-западный.
Видимость - горизонтальная дальность видимости в метрах или километрах. При видимости от 1 до 10 км при отсутствии осадков обычно наблюдается дымка, при ухудшении видимости до 1 км и менее - туман. В сухую погоду видимость может ухудшаться дымом, пылью или мглою.
Явления - указаны атмосферные явления, наблюдавшиеся в срок или в последний час перед сроком; фигурными скобками обозначены явления, наблюдавшиеся между сроками (за 1-3 часа до срока); квадратными скобками обозначены град или гололедные отложения с указанием их диаметра в мм.
Облачность - указаны через наклонную черту общая и нижняя облачность в баллах и высота нижней границы облаков в метрах; квадратными скобками обозначены формы облаков: Ci - перистые, Cs - перисто-слоистые, Cc - перисто-кучевые, Ac - высококучевые, As - высокослоистые, Sc - слоисто-кучевые, Ns - слоисто-дождевые, Cu - кучевые, Cb - кучево-дождевые. Подробнее классификацию облаков см. в Атласе облаков (PDF).
T - Температура воздуха - температура, измеренная на высоте 2 м над землей.
Td - Температура точки росы - температура, при понижении до которой содержащийся в воздухе водяной пар достигнет насыщения.
f - Относительная влажность воздуха - влажноcть воздуха, измеренная на высоте 2 м над землей.
Te - Эффективная температура - температура, которую ощущает одетый по сезону человек в тени. Характеристика душности погоды. При расчете учитывается влияние влажности воздуха и скорости ветра на теплоощущения человека.
Tes - Эффективная температура на солнце - температура, которую ощущает человек, с поправкой на солнечный нагрев. Характеристика знойности погоды. Зависит от высоты солнца над горизонтом, облачности и скорости ветра. Ночью, в пасмурную погоду, а также при ветре 12 м/с и более поправка равна нулю.
P - Атмосферное давление - приведенное к уровню моря атмосферное давление.
Po - Атмосферное давление - измеренное на уровне метеостанции атмосферное давление.
Tmin - Минимальная температура - минимум температуры воздуха на высоте 2 м над землей.
Tmax - Максимальная температура - максимум температуры воздуха на высоте 2 м над землей.
R - Количество осадков - Количество выпавших осадков за период времени, мм. При наведении курсора мыши на число - период времени, за который выпало указанное количество осадков.
R24 - Количество осадков - Количество выпавших осадков за 24 часа, мм.
S - Снежный покров - Высота снежного покрова, см. При наведении курсора мыши на число - состояние снежного покрова и степень покрытия местности в баллах.